7L2IWN-13 Weather Reports


time (UTC)temp
C
wind
direction
speed
KPH
gust
KPH
rain 1hr
cm
rain 24hr
cm
rain mn
cm
humidity
%
barometer
mb
20260905123919 20 256 1.6 4.8 0.00 0.00 0.51 99 1014.9
20260905122719 20 122 6.4 20.9 0.00 0.00 0.51 98 1014.8
20260905122402 20 50 4.8 9.7 0.00 0.84 0.51 99 1014.8
20260905121203 20 259 0.0 1.6 0.00 0.84 0.51 99 1014.9
20260905120003 20 269 1.6 3.2 0.00 0.84 0.51 99 1014.9
20260905114802 20 244 0.0 0.0 0.00 0.86 0.51 99 1014.8
20260905113604 19 271 1.6 1.6 0.00 0.89 0.51 99 1014.6
20260905112402 19 278 3.2 4.8 0.00 0.89 0.51 99 1014.6
20260905111202 20 267 3.2 4.8 0.00 0.91 0.51 99 1014.4
20260905110002 19 262 3.2 3.2 0.00 0.91 0.51 99 1014.4
20260905104801 20 272 3.2 3.2 0.00 0.91 0.51 99 1014.3
20260905103602 20 220 0.0 0.0 0.00 0.94 0.51 99 1014.1
20260905102403 20 230 3.2 3.2 0.00 0.97 0.51 99 1014.2
20260905101202 20 312 3.2 4.8 0.00 0.97 0.51 99 1014.0
20260905100003 20 245 0.0 0.0 0.00 0.97 0.51 99 1013.6
20260905094802 20 211 1.6 1.6 0.00 0.97 0.51 99 1013.4
20260905093601 20 242 1.6 3.2 0.00 0.97 0.51 99 1013.3
20260905092401 20 257 1.6 3.2 0.00 0.97 0.51 99 1013.3
20260905091201 21 152 3.2 4.8 0.00 0.97 0.51 99 1013.3
20260905090003 21 225 1.6 1.6 0.00 0.97 0.51 99 1013.0
20260905084802 21 108 0.0 0.0 0.00 0.97 0.51 98 1013.0
20260905083602 21 110 0.0 0.0 0.00 0.97 0.51 99 1012.9
20260905082402 22 286 0.0 0.0 0.00 0.97 0.51 97 1012.6
20260905081201 21 146 0.0 3.2 0.00 0.97 0.51 98 1012.6
20260905080002 21 172 3.2 4.8 0.00 0.97 0.51 98 1012.6
20260905074803 22 165 1.6 3.2 0.00 0.97 0.51 96 1012.5
20260905073603 23 117 0.0 1.6 0.00 0.97 0.51 92 1012.4
20260905072402 23 58 0.0 0.0 0.00 0.97 0.51 91 1012.3
20260905071201 23 58 0.0 0.0 0.00 0.97 0.51 92 1012.3
20260905070002 23 91 0.0 1.6 0.00 0.97 0.51 92 1012.1
20260905064802 23 27 1.6 3.2 0.00 0.97 0.51 88 1012.2
20260905063603 23 3 0.0 1.6 0.00 0.97 0.51 88 1012.1
20260905062403 23 359 0.0 1.6 0.00 0.97 0.51 89 1012.1
20260905061202 23 308 4.8 8.0 0.00 0.97 0.51 89 1012.4
20260905060002 24 103 1.6 4.8 0.00 0.97 0.51 87 1012.2
20260905054802 23 285 0.0 1.6 0.00 0.97 0.51 90 1012.3
20260905053604 22 330 1.6 3.2 0.00 0.97 0.51 92 1012.2
20260905052403 22 327 3.2 4.8 0.00 0.97 0.51 93 1012.2
20260905051203 22 6 0.0 1.6 0.00 0.97 0.51 93 1012.2
20260905050002 22 303 4.8 8.0 0.00 0.97 0.51 93 1012.1
20260905044802 22 300 3.2 4.8 0.00 0.97 0.51 93 1012.1
20260905043602 21 308 0.0 3.2 0.00 0.97 0.51 95 1012.0
20260905042403 21 302 1.6 3.2 0.00 0.97 0.51 96 1012.0
20260905041202 21 302 0.0 1.6 0.00 0.97 0.51 98 1012.1
20260905040002 21 44 1.6 3.2 0.00 0.97 0.51 95 1012.3
20260905034802 21 103 3.2 4.8 0.00 0.97 0.51 96 1012.2
20260905033603 22 93 3.2 4.8 0.00 0.97 0.51 95 1012.3
20260905032403 21 53 4.8 8.0 0.00 0.97 0.51 95 1012.2
20260905031202 21 21 4.8 9.7 0.03 0.97 0.51 97 1012.2
20260905030003 20 20 8.0 12.9 0.03 0.97 0.51 98 1012.5
20260905024802 21 322 3.2 4.8 0.03 0.97 0.51 98 1012.3
20260905023603 21 56 0.0 0.0 0.03 0.97 0.51 99 1012.7
20260905022403 21 21 0.0 1.6 0.03 0.97 0.51 97 1013.0
20260905021201 18 86 3.2 3.2 0.00 0.97 0.48 99 1012.8
20260905020001 18 86 3.2 3.2 0.00 0.97 0.48 99 1012.9
20260905014802 18 86 3.2 3.2 0.00 0.97 0.48 99 1012.9
20260905013602 18 86 3.2 3.2 0.00 0.97 0.48 99 1013.0
20260905012403 18 86 3.2 3.2 0.00 0.97 0.48 99 1013.1
20260905011203 18 86 3.2 3.2 0.00 0.97 0.48 99 1013.2
20260905010001 18 86 3.2 3.2 0.00 0.97 0.48 99 1013.4
20260905004802 18 86 3.2 3.2 0.00 0.97 0.48 99 1013.3
20260905003603 18 86 3.2 3.2 0.00 0.97 0.48 99 1013.4
20260905002403 18 86 3.2 3.2 0.00 0.97 0.48 99 1013.1
20260905001203 18 86 3.2 3.2 0.00 0.97 0.48 99 1013.2
20260905000003 18 86 3.2 3.2 0.05 0.97 0.48 99 1013.1
20260904234802 18 55 4.8 4.8 0.08 0.97 0.48 99 1012.9
20260904233603 18 58 3.2 3.2 0.08 0.97 0.48 99 1012.7
20260904232403 18 64 4.8 8.0 0.08 0.97 0.48 99 1012.6
20260904231203 18 91 3.2 9.7 0.08 0.97 0.48 99 1012.7
20260904230002 19 335 0.0 0.0 0.03 0.91 0.43 99 1012.5
20260904224803 18 335 0.0 0.0 0.00 0.89 0.41 99 1012.6
20260904223602 19 335 0.0 0.0 0.00 0.89 0.41 99 1012.4
20260904222402 19 335 0.0 0.0 0.00 0.89 0.41 99 1012.4
20260904221204 18 334 0.0 0.0 0.03 0.89 0.41 99 1012.3
20260904220004 18 334 0.0 0.0 0.03 0.89 0.41 99 1012.5
20260904214803 18 334 0.0 0.0 0.03 0.89 0.41 99 1012.1
20260904213603 18 334 0.0 0.0 0.03 0.89 0.41 99 1012.1
20260904212402 18 332 0.0 3.2 0.03 0.89 0.41 99 1012.0
20260904211205 19 328 1.6 1.6 0.00 0.86 0.38 99 1012.0
20260904210003 19 302 0.0 0.0 0.00 0.86 0.38 99 1012.0
20260904204802 19 296 0.0 0.0 0.00 0.86 0.38 99 1011.8
20260904203604 18 279 0.0 0.0 0.00 0.86 0.38 99 1011.8
20260904202403 18 187 0.0 0.0 0.00 0.86 0.38 99 1011.7
20260904201204 18 183 1.6 3.2 0.03 0.86 0.38 99 1011.5
20260904200003 18 237 0.0 0.0 0.05 0.89 0.38 99 1011.6
20260904194802 18 321 1.6 3.2 0.08 0.89 0.38 99 1011.5
20260904193603 18 120 0.0 0.0 0.08 0.89 0.38 99 1010.9
20260904192403 18 126 0.0 0.0 0.10 0.89 0.38 99 1011.2
20260904191203 18 39 1.6 4.8 0.10 0.86 0.36 99 1011.1
20260904190002 18 354 3.2 4.8 0.10 0.84 0.33 99 1011.1
20260904184803 19 58 8.0 9.7 0.10 0.81 0.30 99 1010.7
20260904183601 19 90 1.6 4.8 0.13 0.81 0.30 99 1011.1
20260904182404 19 236 0.0 0.0 0.13 0.79 0.28 99 1011.8
20260904181204 19 173 3.2 4.8 0.10 0.76 0.25 99 1011.5
20260904180003 19 320 8.0 9.7 0.08 0.74 0.23 99 1011.3
20260904174803 18 119 1.6 3.2 0.08 0.71 0.20 99 1010.9
20260904173602 18 117 1.6 3.2 0.08 0.69 0.18 99 1011.0
20260904172403 19 80 3.2 4.8 0.08 0.66 0.15 99 1011.1
20260904171203 19 40 4.8 9.7 0.10 0.66 0.15 99 1010.8
20260904170001 19 24 8.0 9.7 0.10 0.66 0.15 99 1011.1
20260904164802 19 36 3.2 8.0 0.08 0.64 0.13 99 1011.3
20260904163602 19 41 4.8 8.0 0.08 0.61 0.10 99 1011.5
20260904162404 19 81 0.0 1.6 0.08 0.61 0.10 99 1011.4
20260904161202 19 110 3.2 4.8 0.05 0.56 0.05 99 1011.4
20260904160002 19 103 0.0 1.6 0.00 0.56 0.05 99 1011.5
20260904154802 19 119 3.2 4.8 0.00 0.56 0.05 99 1011.1
20260904153604 19 33 0.0 0.0 0.00 0.53 0.03 99 1011.8
20260904152403 19 101 0.0 0.0 0.00 0.53 0.03 99 1011.5
20260904151202 19 160 3.2 4.8 0.00 0.53 0.00 99 1011.4
20260904150003 19 351 1.6 3.2 0.03 0.53 0.53 99 1011.2
20260904144801 19 330 3.2 3.2 0.03 0.53 0.53 99 1011.4
20260904143603 19 104 1.6 1.6 0.05 0.53 0.53 99 1011.4
20260904142402 19 45 1.6 3.2 0.10 0.53 0.53 99 1011.6
20260904141203 19 308 1.6 1.6 0.13 0.51 0.51 99 1011.7
20260904140003 19 339 3.2 3.2 0.20 0.51 0.51 99 1011.8
20260904134803 19 103 3.2 3.2 0.23 0.51 0.51 99 1011.6
20260904133602 19 109 1.6 3.2 0.23 0.48 0.48 99 1012.4
20260904132401 20 27 0.0 1.6 0.23 0.43 0.43 99 1012.3